Weather History for Cecil Field, FL

Change the Weather History Date:

Friday, January 25, 2013

  Actual Average (KJAX) Record (KJAX)
Temperature  
Mean Temperature 58 °F 54 °F  
Max Temperature 71 °F 65 °F 83 °F (1990)
Min Temperature 44 °F 42 °F 20 °F (2003)
Degree Days  
Heating Degree Days 8 12  
Month to date heating degree days 313  
Since 1 July heating degree days 809  
Cooling Degree Days 0 0  
Month to date cooling degree days 0  
Year to date cooling degree days 0  
Growing Degree Days 8 (Base 50)    
Moisture  
Dew Point 48 °F    
Average Humidity 83    
Maximum Humidity 100    
Minimum Humidity 41    
Precipitation  
Precipitation 0.00 in 0.12 in 2.64 in (2011)
Month to date precipitation 2.61  
Year to date precipitation 2.61  
Snow  
Snow 0.00 in 0.00 in 0.00 in (2002)
Month to date snowfall 0.0  
Since 1 July snowfall T  
Snow Depth -    
Sea Level Pressure  
Sea Level Pressure 30.27 in    
Wind  
Wind Speed 4 mph (WSW)    
Max Wind Speed 12 mph    
Max Gust Speed -    
Visibility 7 miles    
Events      
T = Trace of Precipitation, MM = Missing Value Source: NWS Daily Summary

Daily Weather History Graph

Daily Weather History Graph

Search for Another Location

Airport:

Trip Planner

Search our weather history database for the weather conditions in past years. The results will help you decide how hot, cold, wet, or windy it might be!

Date:

Astronomy

Jan. 25, 2013 Rise Set
Actual Time 7:21 AM EST 5:58 PM EST
Civil Twilight 6:56 AM EST 6:23 PM EST
Nautical Twilight 6:27 AM EST 6:52 PM EST
Astronomical Twilight 5:58 AM EST 7:21 PM EST
Moon 4:54 PM EST (1/25) 5:59 AM EST (1/25)
Length of Visible Light 11h 27m
Length of Day
10h 36m
Waxing Gibbous, 98% of the Moon is Illuminated
Jan 25
Waxing Gibbous
Jan 26
Full
Feb 3
Last Quarter
Feb 10
New
Feb 17
First Quarter

Hourly Weather History & Observations

Time (EST) Temp. Windchill Dew Point Humidity Pressure Visibility Wind Dir Wind Speed Gust Speed Precip Events Conditions
12:15 AM 55.4 °F - 50.0 °F 82% 30.30 in 10.0 mi North 9.2 mph - N/A   Clear
12:35 AM 55.4 °F - 50.0 °F 82% 30.31 in 10.0 mi NNE 6.9 mph - N/A   Clear
12:55 AM 53.6 °F - 50.0 °F 88% 30.31 in 8.0 mi NNE 5.8 mph - N/A   Clear
1:15 AM 53.6 °F - 51.8 °F 94% 30.31 in 8.0 mi Calm Calm - N/A   Clear
1:55 AM 50.0 °F - 50.0 °F 100% 30.31 in 6.0 mi Calm Calm - N/A   Clear
2:15 AM 48.2 °F - 48.2 °F 100% 30.31 in 3.0 mi Calm Calm - N/A   Clear
2:35 AM 48.2 °F - 48.2 °F 100% 30.31 in 5.0 mi Calm Calm - N/A   Clear
2:55 AM 48.2 °F - 48.2 °F 100% 30.31 in 4.0 mi Calm Calm - N/A   Clear
3:15 AM 46.4 °F - 46.4 °F 100% 30.31 in 4.0 mi Calm Calm - N/A   Clear
3:35 AM 46.4 °F - 46.4 °F 100% 30.31 in 4.0 mi Calm Calm - N/A   Clear
3:55 AM 46.4 °F - 46.4 °F 100% 30.31 in 2.0 mi Calm Calm - N/A   Clear
4:15 AM 46.4 °F - 46.4 °F 100% 30.31 in 2.5 mi Calm Calm - N/A   Clear
4:35 AM 44.6 °F - 44.6 °F 100% 30.32 in 3.0 mi Calm Calm - N/A   Clear
4:55 AM 46.4 °F - 46.4 °F 100% 30.32 in 2.5 mi Calm Calm - N/A   Clear
5:15 AM 44.6 °F - 44.6 °F 100% 30.32 in 1.8 mi Calm Calm - N/A   Clear
5:35 AM 46.4 °F - 46.4 °F 100% 30.31 in 3.0 mi Calm Calm - N/A   Clear
5:55 AM 44.6 °F - 44.6 °F 100% 30.31 in 1.8 mi Calm Calm - N/A   Clear
6:15 AM 46.4 °F - 46.4 °F 100% 30.31 in 3.0 mi Calm Calm - N/A   Partly Cloudy
6:35 AM 46.4 °F - 46.4 °F 100% 30.32 in 4.0 mi Calm Calm - N/A   Partly Cloudy
6:50 AM 46.4 °F 45.2 °F 46.4 °F 100% 30.32 in 5.0 mi North 3.5 mph - N/A   Clear
7:50 AM 48.2 °F - 48.2 °F 100% 30.34 in 7.0 mi North 4.6 mph - N/A   Mostly Cloudy
8:50 AM 53.6 °F - 53.6 °F 100% 30.34 in 7.0 mi NNE 4.6 mph - N/A   Mostly Cloudy
9:50 AM 57.2 °F - 53.6 °F 88% 30.35 in 7.0 mi NNE 8.1 mph - N/A   Mostly Cloudy
10:50 AM 62.6 °F - 53.6 °F 72% 30.33 in 10.0 mi NE 3.5 mph - N/A   Scattered Clouds
11:50 AM 66.2 °F - 53.6 °F 64% 30.31 in 10.0 mi Variable 5.8 mph - N/A   Partly Cloudy
12:50 PM 71.6 °F - 48.2 °F 43% 30.26 in 10.0 mi South 9.2 mph - N/A   Partly Cloudy
1:50 PM 71.6 °F - 46.4 °F 41% 30.22 in 10.0 mi SSW 11.5 mph - N/A   Partly Cloudy
2:50 PM 71.6 °F - 46.4 °F 41% 30.20 in 10.0 mi WSW 6.9 mph - N/A   Partly Cloudy
3:50 PM 71.6 °F - 46.4 °F 41% 30.19 in 10.0 mi SW 11.5 mph - N/A   Scattered Clouds
5:50 PM 66.2 °F - 50.0 °F 56% 30.19 in 10.0 mi Calm Calm - N/A   Clear
6:50 PM 57.2 °F - 50.0 °F 77% 30.19 in 10.0 mi Calm Calm - N/A   Clear
7:50 PM 51.8 °F - 48.2 °F 88% 30.19 in 10.0 mi Calm Calm - N/A   Clear
8:15 PM 50.0 °F - 48.2 °F 94% 30.20 in 7.0 mi WSW 4.6 mph - N/A   Clear
8:35 PM 59.0 °F - 48.2 °F 67% 30.21 in 10.0 mi SW 5.8 mph - N/A   Clear
8:55 PM 57.2 °F - 48.2 °F 72% 30.21 in 10.0 mi SW 4.6 mph - N/A   Clear
9:15 PM 55.4 °F - 46.4 °F 72% 30.20 in 8.0 mi SSW 4.6 mph - N/A   Clear
9:35 PM 53.6 °F - 46.4 °F 77% 30.21 in 5.0 mi SSW 3.5 mph - N/A   Haze
9:55 PM 53.6 °F - 46.4 °F 77% 30.21 in 4.0 mi Calm Calm - N/A   Haze
10:15 PM 57.2 °F - 46.4 °F 67% 30.21 in 7.0 mi SW 6.9 mph - N/A   Clear
10:35 PM 57.2 °F - 46.4 °F 67% 30.22 in 7.0 mi SW 6.9 mph - N/A   Clear
10:55 PM 57.2 °F - 48.2 °F 72% 30.22 in 10.0 mi SW 5.8 mph - N/A   Clear
11:15 PM 55.4 °F - 48.2 °F 77% 30.22 in 5.0 mi SW 6.9 mph - N/A   Haze
11:35 PM 55.4 °F - 48.2 °F 77% 30.22 in 6.0 mi SSW 6.9 mph - N/A   Haze
11:55 PM 55.4 °F - 50.0 °F 82% 30.21 in 8.0 mi SSW 8.1 mph - N/A   Clear